Weather Roundup
Issued by NWS

Home | Current Version | Previous Version | Text Only | Print | Product List | Glossary On
Versions: 1 2 3 4 5 6 7 8 9 10 11 12 13 14 15 16 17 18 19 20 21 22 23 24 25 26 27 28 29 30 31 32 33 34 35 36 37 38 39 40 41 42 43 44 45 46 47 48 49 50
176
NZUS93 KARX 100110
HRRWXR

CURRENT HOURLY OBSERVATIONS ACROSS
MUCH OF THE UPPER MISSISSIPPI VALLEY
NATIONAL WEATHER SERVICE LA CROSSE WI
700 PM CST FRI DEC 09 2016


...SOUTHEAST MINNESOTA...


CITY           SKY/WX    TMP DP  RH WIND       PRES   REMARKS
ROCHESTER      PTCLDY    10   7  87 W7        30.47S WCI  -1
ROCHESTER/MAYO CLOUDY    16  12  82 W6        30.48S WCI   8
WINONA         CLOUDY    18  12  79 SW5       30.51S WCI  11
AUSTIN         MOCLDY    16  10  79 W7        30.48S WCI   6
ALBERT LEA     CLOUDY    19  16  86 NW5       30.49R WCI  13
DODGE CENTER   PTCLDY    14  10  85 W7        30.47R WCI   4
PRESTON        PTCLDY    12   8  85 W6        30.48R WCI   3
OWATONNA       FLURRIES  14   9  79 W7        30.49R WCI   4
FARIBAULT      CLOUDY    12   9  85 W6        30.50S WCI   3
$$

...ELSEWHERE IN MINNESOTA...


CITY           SKY/WX    TMP DP  RH WIND       PRES   REMARKS
MINNEAPOLIS    MOCLDY    14   6  70 NW9       30.50S WCI   2
INTNL FALLS    CLEAR     -1  -7  75 W7        30.44S WCI -14
DULUTH         FLURRIES   7   1  76 NW6       30.41S WCI  -3
RED WING       CLOUDY    16   9  73 W9        30.50R WCI   4
REDWOOD FALLS  CLOUDY    10   1  67 NW9       30.53S WCI  -3
MANKATO        LGT SNOW  12   8  84 W6        30.52S FOG     WCI   3
WORTHINGTON    LGT SNOW  13   9  84 NW6       30.48S FOG     WCI   4
FAIRMONT       LGT SNOW  16  11  80 NW8       30.51S WCI   5
$$

...SOUTHWEST WISCONSIN...


CITY           SKY/WX    TMP DP  RH WIND       PRES   REMARKS
LA CROSSE      PTCLDY    19  10  68 SW6       30.51S WCI  11
PRAIRIE DU CHI CLOUDY    18  10  71 W6        30.53S WCI  10
BOSCOBEL       CLOUDY    20  11  68 W7        30.52S WCI  11
LONE ROCK      MOCLDY    20  11  68 W7        30.51S WCI  11
PLATTEVILLE    CLEAR     15  13  90 SW5       30.50S WCI   8
FORT MC COY    PTCLDY    18  11  75 W3        30.49S
CAMP DOUGLAS   PTCLDY    15   9  78 W3        30.46F
MAUSTON-NEW LI CLOUDY    19  11  69 SW5       30.46S WCI  12
VIROQUA        MOCLDY    15  10  82 W9        30.46S WCI   3
WIS DELLS      PTCLDY    18  10  71 W6        30.46F WCI  10
$$

...ELSEWHERE IN WISCONSIN...


CITY           SKY/WX    TMP DP  RH WIND       PRES   REMARKS
MILWAUKEE      MOCLDY    23   9  55 W6        30.49R WCI  16
MADISON        PTCLDY    19  11  70 VRB5      30.48S WCI  12
GREEN BAY      CLOUDY    22   8  55 NW10      30.45R WCI  11
EAU CLAIRE     LGT SNOW  16  13  88 SW3       30.46S FOG
BLACK RVR FLS  FAIR       9   6  87 CALM      30.48S
MEDFORD        FLURRIES  14   9  80 W5        30.39S WCI   6
WAUSAU         CLOUDY    15   9  76 W10       30.41R WCI   2
WIS RAPIDS     CLOUDY    16  10  77 NW3       30.45F
MARSHFIELD     FLURRIES  16  10  77 W6        30.41F WCI   7
RICE LAKE      CLOUDY    15   8  71 NW6       30.46S WCI   7
$$

...NORTHEAST IOWA...


CITY           SKY/WX    TMP DP  RH WIND       PRES   REMARKS
WATERLOO       CLOUDY    18  12  77 SW5       30.52S WCI  11
DUBUQUE        MOCLDY    14  10  84 W9        30.50S WCI   2
DECORAH        CLOUDY    14  10  85 CALM      30.48S
MASON CITY     CLOUDY    18  11  74 W7        30.51R WCI   9
CHARLES CITY   CLOUDY    16  12  86 SW3       30.50S
OELWEIN        CLOUDY    14  12  92 S5        30.51S WCI   6
$$

...ELSEWHERE IN IOWA...


CITY           SKY/WX    TMP DP  RH WIND       PRES   REMARKS
DES MOINES     CLOUDY    23  10  57 SW5       30.54S WCI  17
IOWA CITY      CLOUDY    20  13  74 NW3       30.57S
FORT DODGE     CLOUDY    19   9  63 W3        30.52R
MARSHALLTOWN   CLOUDY    19  13  77 CALM      30.52S
CEDAR RAPIDS   CLOUDY    16  14  92 CALM      30.53S
$$

...NORTHERN ILLINOIS...


CITY           SKY/WX    TMP DP  RH WIND       PRES   REMARKS
CHICAGO-OHARE  MOCLDY    20  12  71 W9        30.51S WCI   9
CHICAGO-MIDWAY MOCLDY    22  12  65 W9        30.52S WCI  12
MOLINE         CLOUDY    20  12  71 W3        30.56S
ROCKFORD       PTCLDY    19  11  70 CALM      30.54R
PEORIA         CLOUDY    23  12  62 CALM      30.56F
$$

NOTE: "FAIR" INDICATES FEW OR NO CLOUDS BELOW 12,000 FEET WITH NO
SIGNIFICANT WEATHER AND/OR OBSTRUCTIONS TO VISIBILITY. WIND
SPEEDS ARE IN MILES-PER-HOUR.




USA.gov is the U.S. government's official web portal to all federal, state and local government web resources and services.